Wind_Speed
19 20 21 21 21 15 12 12 11 10 9 8 8 7 7 6 7 7 8 8 7 7 7 7 7 6 6 6 5 5 6 7 7 8 9 10 12 12 12 12 11 10 11 11 10 10 11 12 12
19 20 22 22 16 13 13 12 12 12 10 9 9 9 8 8 8 8 8 8 8 7 7 8 7 7 7 6 6 6 6 6 7 9 10 10 11 12 11 10 9 9 10 11 10 11 12 12 12
21 22 21 16 11 12 13 13 12 12 12 11 11 10 9 9 8 8 8 8 9 8 8 8 8 7 7 7 6 6 6 6 7 9 10 10 10 10 10 10 9 10 10 11 11 12 12 12 12
22 22 19 13 12 14 14 14 13 13 12 12 11 11 10 10 9 9 9 9 9 9 8 8 8 7 6 6 6 6 6 6 6 8 10 10 10 9 9 9 9 10 10 10 10 11 12 12 11
22 19 14 13 14 14 14 14 14 14 13 13 13 13 12 11 10 10 9 9 9 9 8 8 8 7 6 6 6 5 6 6 6 7 8 9 10 10 9 9 9 9 10 10 11 11 11 12 11
20 16 12 13 14 14 15 14 14 14 14 14 14 14 14 13 12 11 10 10 10 9 8 8 7 7 6 6 6 6 6 7 6 6 8 8 9 10 9 9 9 10 11 11 11 11 11 11 11
19 12 11 12 13 13 14 14 14 14 14 15 15 15 14 14 13 12 11 11 11 10 9 8 7 8 7 7 7 7 6 7 7 6 8 8 9 9 9 9 9 10 10 10 10 10 10 10 10
14 10 9 10 11 12 13 14 15 15 14 15 15 15 15 15 14 14 13 12 12 11 10 9 8 8 8 8 8 7 7 7 7 7 7 7 8 8 9 9 9 10 10 10 10 9 9 9 9
10 8 6 7 10 12 12 13 14 15 15 15 15 15 15 15 15 15 14 13 12 12 12 12 10 9 8 8 8 7 7 7 7 7 7 6 6 7 7 8 8 9 9 8 8 8 9 8 7
6 5 4 7 9 11 12 13 14 16 16 15 15 15 15 15 15 15 14 14 13 13 12 12 11 10 9 8 8 7 6 6 6 6 6 6 6 7 7 7 8 8 8 7 7 7 7 7 6
5 5 6 8 10 12 13 14 15 15 16 15 15 15 15 15 15 15 15 14 13 12 11 11 11 10 10 9 9 8 7 6 6 6 6 6 6 7 7 7 8 7 7 6 6 5 5 5 5
5 6 7 8 10 12 13 14 14 15 15 16 15 15 15 15 15 15 15 14 13 12 12 11 10 10 10 9 9 9 7 7 7 7 7 7 6 6 6 7 6 6 6 5 5 5 4 4 4
3 6 8 9 10 12 13 14 14 14 15 16 16 16 15 15 15 15 15 14 14 13 12 12 11 11 10 10 10 10 9 8 7 7 6 6 6 5 6 6 6 6 6 5 4 4 4 3 3
4 5 7 9 10 10 12 13 14 15 15 15 16 16 16 15 15 15 14 14 14 13 12 12 11 11 11 10 10 10 9 9 8 6 6 5 5 5 5 5 5 5 5 4 4 3 3 2 2
3 5 5 8 9 10 11 12 13 14 14 15 16 16 16 15 15 14 14 13 13 13 12 11 11 10 10 10 10 10 9 8 7 6 6 6 5 4 5 5 5 4 3 3 3 2 2 1 1
2 3 3 6 8 8 9 10 12 14 14 15 15 15 15 15 15 14 14 13 13 12 12 11 10 10 10 10 10 10 9 9 8 8 7 7 6 6 5 5 4 4 3 2 2 1 1 0 1
3 2 2 6 6 7 7 8 10 13 13 14 14 14 14 14 14 14 13 13 13 12 12 11 11 10 10 9 9 9 9 10 10 10 9 8 7 7 6 5 4 3 2 2 1 1 0 1 2
5 4 4 6 6 6 6 8 9 12 13 13 14 14 13 13 14 14 13 12 12 12 12 12 11 11 10 10 9 9 9 9 10 10 9 8 8 7 6 5 5 3 2 2 1 2 2 2 2
6 6 6 6 7 7 7 6 8 11 12 12 12 13 13 13 13 13 13 12 12 11 11 12 11 11 10 10 9 9 9 9 10 10 9 8 7 6 6 5 4 4 4 3 3 3 3 3 3
9 8 7 8 8 6 7 6 6 8 11 11 12 12 12 12 12 11 12 12 11 11 10 10 11 10 10 10 9 9 9 9 9 9 8 8 7 6 6 5 4 3 3 3 3 3 3 4 4
13 10 10 10 8 6 8 10 7 7 9 10 10 11 11 11 11 12 12 11 10 10 10 10 10 10 10 10 9 9 8 8 9 9 8 8 7 6 5 5 4 3 3 3 3 3 4 5 6
14 13 12 11 9 7 7 11 9 7 8 9 10 10 10 9 9 10 11 10 10 10 10 10 10 10 10 9 9 8 8 8 8 8 7 7 6 6 5 5 4 4 3 3 4 4 5 6 6
17 16 14 13 11 9 8 10 15 8 8 8 9 9 9 8 8 9 9 10 10 9 9 9 10 9 10 9 9 8 7 8 7 7 7 6 6 6 5 5 4 4 5 5 5 6 6 7 7
19 17 15 14 13 13 10 11 13 12 11 8 8 8 8 7 7 8 9 9 9 9 9 9 9 9 9 9 9 8 8 8 8 7 7 6 5 5 5 5 5 5 5 6 7 7 8 8 8
21 18 15 14 15 15 11 11 13 11 11 10 9 7 6 6 6 7 8 8 8 8 8 8 8 9 9 9 8 8 8 8 8 7 7 7 6 6 5 5 6 6 6 7 8 8 8 8 9
23 21 19 17 15 15 12 12 12 11 12 11 9 7 6 5 5 6 7 7 7 7 8 8 8 8 8 8 8 8 8 7 7 7 7 7 7 7 7 7 7 7 8 9 9 9 9 9 10
25 23 21 20 19 19 16 14 13 13 13 12 10 8 8 7 7 7 7 7 6 7 7 7 8 7 7 8 8 8 8 8 8 7 7 7 8 8 8 8 8 9 9 10 10 10 10 10 10
27 24 22 23 23 20 18 16 15 14 14 12 12 11 10 9 8 8 8 7 7 7 7 7 7 7 7 7 7 8 8 8 8 8 8 8 8 8 9 9 9 10 10 11 11 11 11 10 10
27 27 26 25 24 21 19 17 15 14 14 12 13 13 12 11 9 9 8 8 7 7 7 7 7 8 7 7 8 8 9 9 9 9 9 9 9 9 9 9 10 10 11 11 12 12 12 11 11
26 27 26 26 25 24 20 18 16 14 13 13 13 14 14 13 11 10 9 8 8 8 8 8 8 8 8 8 8 9 9 10 10 10 10 9 9 10 10 10 11 11 12 13 13 13 12 12 13
Wind_Direction
63 62 57 51 47 35 28 31 35 39 43 44 45 46 47 43 38 36 37 38 41 43 52 62 69 72 80 89 93 103 109 114 113 120 124 128 129 129 130 129 129 128 127 123 124 122 123 119 116
63 59 53 48 42 26 31 36 37 39 42 44 44 46 46 47 48 40 38 39 44 48 58 66 72 71 77 81 86 95 100 109 116 124 122 123 125 127 128 125 125 127 129 125 124 123 125 120 118
64 58 55 44 32 28 34 38 41 39 42 43 44 44 45 46 48 43 41 41 48 54 61 64 71 73 76 77 80 90 93 106 116 119 125 121 123 126 126 124 124 126 130 129 127 125 125 121 119
63 56 50 40 32 35 36 38 41 40 41 41 42 42 44 48 49 46 44 46 51 53 56 64 72 76 78 75 71 78 86 99 113 118 120 119 118 124 125 126 128 128 132 129 124 121 123 121 119
60 53 41 29 31 37 40 43 42 42 43 44 44 43 44 48 50 49 49 52 52 51 51 64 74 76 77 73 72 77 85 97 111 120 118 120 124 124 128 132 130 131 132 130 124 121 123 122 124
65 42 28 25 29 37 39 41 41 41 43 45 46 44 45 48 49 50 50 52 52 52 54 62 72 76 80 83 80 83 90 96 101 115 120 123 126 123 124 130 127 128 131 129 127 119 118 120 123
72 49 29 21 27 35 38 40 40 41 41 44 45 46 45 48 49 49 51 49 49 48 47 59 73 78 83 92 87 85 87 93 96 106 116 121 126 128 127 126 126 125 121 124 125 122 119 120 119
73 60 33 18 23 32 36 41 40 41 42 43 44 44 44 47 48 50 53 51 50 50 51 62 67 77 84 90 84 82 84 93 97 106 115 119 124 127 129 131 125 119 115 112 116 124 125 119 117
76 69 42 17 24 36 38 40 41 42 41 44 45 45 45 47 49 52 54 52 49 50 52 64 69 74 78 84 82 79 82 91 96 103 112 112 119 127 127 124 120 116 115 114 115 120 122 118 116
76 78 44 27 32 39 38 35 39 42 42 44 44 44 45 48 50 53 54 52 51 50 55 64 67 67 69 72 74 72 77 85 91 99 111 113 118 126 130 131 129 125 124 122 122 124 129 127 124
59 62 39 38 39 42 41 38 39 40 43 43 43 43 45 48 49 51 52 50 50 52 55 61 63 62 64 66 66 66 73 80 87 100 108 113 116 119 127 134 137 134 132 132 131 135 138 144 144
64 66 48 44 44 46 47 45 41 42 43 42 41 42 42 46 49 48 50 50 49 51 53 57 61 62 66 66 62 60 69 81 83 97 107 107 110 118 124 132 138 144 145 144 146 146 149 156 159
75 67 53 44 45 44 47 44 41 42 41 40 40 41 42 45 47 47 48 49 48 48 50 53 57 59 63 64 62 60 64 74 81 83 91 97 106 114 123 130 135 135 134 135 139 148 157 164 177
104 77 48 34 35 37 45 42 36 37 37 39 39 40 40 44 45 45 45 46 44 46 49 53 57 60 62 61 61 60 61 61 66 75 80 84 98 105 113 125 130 130 134 135 129 132 150 152 169
114 73 49 24 23 26 33 36 32 31 32 36 38 39 39 41 43 42 43 44 45 45 48 49 53 58 59 57 55 56 57 56 59 68 76 81 94 100 107 114 119 123 132 131 126 117 131 163 224
80 39 17 6 10 12 23 25 24 26 27 32 36 38 38 38 40 41 41 40 44 45 45 46 49 54 53 52 52 55 56 51 52 58 70 84 90 96 104 115 118 118 120 120 120 116 115 287 301
201 258 312 330 352 355 3 12 16 18 22 28 31 33 36 36 37 38 38 39 41 42 42 44 47 51 50 49 49 51 52 51 51 58 67 77 83 86 91 100 110 113 113 114 100 67 44 328 315
204 211 238 276 313 328 331 355 12 13 16 24 28 29 31 34 35 35 36 38 39 40 41 42 45 46 46 45 47 48 49 50 48 52 59 67 70 77 78 78 86 78 73 68 56 25 7 350 320
215 220 240 261 294 303 305 332 359 5 8 15 21 25 28 31 30 30 32 35 37 37 39 41 44 44 42 43 44 45 47 49 49 50 56 60 63 67 67 67 68 60 51 43 32 12 358 351 343
222 225 243 264 280 291 302 311 339 352 354 2 9 15 21 24 26 26 26 27 32 35 36 37 39 40 39 39 41 42 43 45 45 47 51 52 55 57 57 54 56 48 41 34 28 19 360 348 335
230 229 234 245 266 291 288 298 308 331 338 350 357 3 9 16 21 23 23 24 26 30 31 33 36 37 36 36 36 37 40 44 46 49 47 47 47 46 45 41 38 31 27 19 13 4 352 348 342
231 233 236 239 250 264 269 287 298 303 322 339 345 351 360 6 15 19 20 20 23 26 28 29 30 31 32 31 30 31 33 37 37 36 37 36 35 38 36 30 28 24 17 6 355 354 348 342 336
227 233 236 241 243 251 261 279 289 291 302 318 331 343 349 358 4 10 13 14 17 20 23 24 24 25 27 27 25 27 27 28 27 26 31 30 31 32 27 20 13 12 6 356 344 338 335 332 331
227 235 238 244 247 250 247 260 276 290 296 299 313 328 341 351 358 2 5 10 11 14 17 20 21 23 24 24 23 21 20 22 22 21 21 21 19 17 13 6 360 355 349 345 341 334 330 329 327
224 228 233 240 245 251 242 247 259 276 287 299 304 312 328 343 353 357 0 5 8 9 11 14 15 17 18 17 16 16 16 16 16 15 14 11 8 2 357 352 350 344 338 338 334 329 327 326 326
225 223 229 238 250 260 243 238 252 268 282 286 292 296 313 325 336 344 350 353 0 2 2 3 3 5 10 13 11 11 9 7 6 7 5 1 1 4 5 0 356 350 343 339 337 332 327 325 324
224 226 227 241 251 260 260 250 250 261 266 278 286 284 292 305 313 323 331 339 343 347 349 351 354 356 360 4 5 4 0 359 357 357 358 356 356 359 358 354 352 346 340 338 336 331 326 324 323
223 224 226 233 245 251 254 251 240 246 267 275 276 275 278 287 296 307 316 321 322 327 334 338 340 340 344 348 351 352 351 351 351 349 346 345 346 349 350 348 346 344 342 340 337 335 331 326 325
224 222 223 227 233 243 254 254 246 244 259 264 272 272 274 278 284 290 301 307 308 313 321 329 331 331 330 333 336 339 342 345 344 341 337 336 337 339 340 340 340 339 337 337 336 334 334 329 327
227 227 225 229 231 230 242 257 259 257 258 257 268 271 268 271 274 280 287 294 299 302 307 315 320 323 323 323 326 329 331 333 336 335 332 330 329 332 333 333 333 333 332 331 331 330 329 328 327
Height
5893 5891 5889 5887 5887 5888 5886 5885 5883 5881 5879 5878 5876 5875 5873 5872 5872 5873 5869 5868 5868 5867 5865 5865 5865 5864 5864 5864 5864 5864 5864 5864 5864 5863 5864 5864 5865 5867 5868 5869 5870 5871 5872 5874 5874 5875 5876 5877 5878
5896 5893 5891 5891 5893 5891 5889 5887 5885 5883 5882 5880 5878 5877 5875 5874 5873 5872 5870 5870 5869 5868 5867 5867 5866 5866 5866 5865 5865 5866 5865 5866 5866 5865 5865 5866 5867 5868 5870 5871 5872 5873 5874 5875 5876 5877 5878 5879 5880
5898 5896 5895 5896 5897 5894 5892 5889 5887 5885 5884 5882 5881 5879 5877 5876 5875 5873 5872 5871 5870 5869 5869 5868 5868 5868 5868 5867 5867 5867 5867 5867 5867 5867 5867 5868 5869 5870 5871 5872 5874 5875 5876 5877 5878 5879 5879 5880 5882
5899 5899 5901 5901 5899 5896 5894 5891 5889 5888 5886 5884 5883 5881 5879 5878 5876 5875 5874 5873 5872 5871 5870 5869 5869 5869 5869 5869 5869 5868 5868 5869 5869 5869 5869 5870 5871 5871 5873 5874 5875 5876 5878 5879 5880 5880 5881 5882 5884
5901 5903 5904 5903 5901 5899 5897 5894 5892 5890 5889 5887 5885 5883 5881 5880 5878 5877 5876 5875 5874 5873 5872 5871 5871 5871 5871 5871 5870 5870 5870 5870 5871 5871 5871 5872 5872 5873 5874 5876 5877 5878 5879 5881 5881 5882 5883 5884 5885
5906 5908 5909 5907 5904 5902 5899 5897 5895 5893 5891 5889 5887 5885 5884 5882 5880 5879 5878 5876 5875 5875 5874 5873 5872 5872 5872 5872 5872 5872 5872 5872 5872 5873 5873 5874 5874 5875 5876 5877 5878 5880 5881 5882 5883 5884 5885 5886 5887
5911 5915 5914 5911 5907 5905 5903 5900 5898 5896 5894 5892 5890 5888 5886 5884 5883 5881 5880 5879 5878 5877 5875 5874 5874 5874 5873 5873 5874 5874 5874 5874 5874 5875 5875 5876 5876 5877 5878 5879 5880 5881 5882 5883 5885 5886 5887 5888 5889
5916 5918 5917 5914 5911 5908 5905 5903 5901 5898 5897 5894 5892 5890 5888 5887 5885 5884 5882 5881 5880 5879 5877 5876 5876 5876 5876 5875 5875 5876 5876 5876 5876 5877 5877 5878 5878 5879 5880 5880 5881 5883 5884 5885 5886 5887 5889 5890 5890
5920 5921 5919 5916 5913 5911 5908 5905 5903 5901 5899 5897 5895 5893 5891 5889 5888 5886 5885 5883 5882 5881 5880 5879 5878 5878 5878 5878 5878 5878 5878 5878 5878 5878 5879 5879 5880 5881 5881 5882 5883 5884 5885 5887 5888 5889 5890 5891 5892
5922 5922 5920 5917 5915 5913 5910 5908 5905 5903 5902 5899 5898 5896 5894 5892 5890 5889 5887 5886 5884 5884 5883 5882 5881 5881 5881 5880 5880 5880 5880 5880 5880 5880 5880 5881 5881 5882 5883 5884 5885 5886 5887 5888 5889 5890 5891 5892 5893
5923 5923 5921 5919 5917 5915 5913 5910 5908 5906 5904 5902 5900 5898 5896 5895 5893 5891 5890 5888 5887 5886 5885 5885 5884 5883 5883 5883 5883 5882 5882 5881 5881 5881 5882 5882 5883 5884 5885 5886 5887 5887 5888 5889 5890 5891 5892 5893 5894
5925 5924 5922 5921 5919 5917 5916 5913 5911 5910 5908 5905 5903 5901 5899 5897 5895 5894 5892 5891 5890 5889 5888 5887 5886 5886 5885 5885 5884 5884 5884 5884 5883 5883 5883 5884 5884 5885 5886 5887 5888 5889 5889 5890 5891 5892 5893 5894 5894
5926 5925 5924 5923 5921 5919 5918 5916 5915 5913 5910 5908 5905 5903 5901 5899 5898 5897 5895 5894 5893 5892 5891 5889 5889 5888 5887 5887 5887 5886 5886 5885 5885 5885 5885 5885 5886 5886 5887 5888 5888 5889 5890 5891 5892 5892 5893 5894 5894
5926 5926 5925 5925 5923 5921 5919 5918 5917 5915 5913 5911 5908 5906 5904 5902 5901 5900 5898 5897 5896 5895 5894 5892 5891 5891 5890 5890 5889 5888 5888 5887 5887 5887 5886 5886 5887 5887 5888 5889 5889 5890 5891 5892 5892 5893 5893 5893 5894
5926 5927 5927 5926 5925 5923 5922 5921 5919 5918 5915 5913 5911 5909 5907 5905 5903 5902 5901 5900 5899 5897 5896 5895 5894 5893 5893 5892 5891 5890 5890 5889 5889 5888 5888 5887 5887 5888 5889 5889 5890 5891 5891 5892 5893 5893 5893 5893 5894
5927 5927 5929 5928 5927 5925 5925 5923 5922 5920 5918 5915 5913 5911 5910 5908 5906 5905 5904 5902 5901 5900 5899 5898 5897 5896 5895 5894 5893 5892 5892 5891 5890 5889 5889 5889 5889 5889 5890 5890 5891 5892 5892 5892 5893 5893 5894 5894 5894
5927 5929 5930 5930 5929 5927 5926 5924 5923 5921 5920 5917 5915 5914 5912 5910 5909 5907 5906 5905 5903 5902 5901 5900 5899 5898 5897 5896 5895 5894 5893 5893 5892 5891 5891 5891 5891 5891 5891 5891 5892 5892 5893 5893 5893 5893 5893 5893 5893
5929 5930 5931 5931 5929 5928 5926 5925 5924 5922 5921 5919 5917 5916 5914 5912 5911 5909 5908 5907 5905 5904 5903 5902 5901 5900 5899 5898 5897 5896 5895 5895 5894 5893 5893 5892 5892 5892 5892 5892 5892 5893 5893 5893 5893 5893 5893 5893 5893
5929 5929 5930 5930 5929 5929 5927 5925 5925 5924 5923 5921 5919 5918 5916 5914 5913 5911 5910 5908 5907 5906 5905 5904 5903 5902 5901 5900 5898 5897 5897 5896 5896 5895 5894 5894 5894 5894 5893 5894 5893 5893 5893 5893 5893 5893 5893 5893 5893
5927 5930 5931 5930 5929 5929 5927 5925 5925 5925 5924 5922 5921 5919 5917 5916 5915 5913 5912 5910 5909 5908 5907 5906 5905 5904 5902 5901 5900 5900 5899 5898 5897 5897 5896 5896 5895 5895 5895 5895 5894 5894 5894 5894 5894 5894 5893 5893 5893
5926 5928 5929 5928 5929 5928 5928 5926 5925 5924 5924 5923 5922 5920 5919 5917 5916 5915 5913 5912 5910 5909 5908 5907 5906 5905 5904 5903 5902 5901 5900 5899 5899 5898 5898 5897 5897 5896 5896 5896 5895 5895 5895 5894 5894 5894 5893 5893 5892
5925 5926 5927 5927 5927 5928 5928 5926 5925 5923 5924 5923 5922 5921 5920 5918 5917 5916 5915 5913 5912 5911 5910 5909 5908 5907 5906 5904 5903 5902 5902 5901 5900 5900 5899 5898 5898 5897 5897 5897 5896 5896 5895 5895 5894 5894 5893 5892 5892
5923 5923 5924 5925 5925 5927 5927 5927 5924 5922 5923 5923 5922 5921 5920 5919 5918 5917 5916 5915 5913 5912 5911 5910 5909 5908 5907 5906 5905 5904 5903 5902 5902 5901 5900 5899 5899 5898 5898 5897 5897 5896 5896 5895 5894 5893 5893 5892 5891
5919 5920 5921 5923 5924 5925 5926 5928 5925 5922 5922 5921 5921 5921 5921 5920 5919 5918 5917 5915 5914 5914 5912 5911 5910 5909 5908 5907 5906 5905 5904 5903 5902 5902 5901 5900 5899 5899 5898 5898 5897 5896 5896 5895 5894 5893 5892 5891 5890
5915 5918 5919 5920 5922 5922 5923 5924 5924 5922 5921 5921 5921 5921 5920 5920 5919 5918 5917 5916 5915 5914 5913 5912 5911 5911 5909 5908 5907 5906 5905 5904 5903 5902 5902 5901 5900 5899 5898 5898 5897 5896 5895 5894 5893 5892 5891 5890 5889
5910 5914 5917 5919 5920 5919 5918 5920 5922 5920 5921 5920 5920 5920 5919 5919 5919 5918 5918 5917 5916 5915 5914 5913 5912 5911 5910 5909 5908 5907 5906 5905 5904 5903 5902 5902 5901 5900 5898 5898 5897 5896 5895 5894 5892 5891 5890 5888 5887
5906 5910 5914 5917 5917 5918 5917 5918 5918 5918 5919 5919 5919 5918 5918 5918 5918 5918 5917 5917 5916 5915 5914 5913 5912 5911 5911 5910 5908 5908 5907 5906 5905 5904 5903 5902 5901 5900 5899 5898 5897 5895 5894 5893 5891 5890 5888 5887 5885
5902 5905 5910 5912 5913 5914 5915 5914 5915 5914 5916 5917 5916 5916 5916 5917 5917 5917 5916 5916 5915 5915 5914 5913 5912 5911 5910 5910 5909 5908 5907 5906 5905 5904 5903 5902 5901 5900 5899 5897 5896 5895 5893 5892 5890 5888 5887 5885 5884
5896 5900 5902 5906 5909 5911 5912 5911 5908 5910 5912 5913 5914 5914 5914 5915 5915 5915 5915 5915 5914 5914 5913 5913 5912 5911 5910 5909 5909 5908 5907 5906 5905 5904 5903 5902 5901 5900 5898 5897 5895 5894 5892 5891 5889 5887 5885 5884 5882
5891 5894 5898 5901 5903 5905 5908 5911 5907 5909 5909 5909 5910 5911 5912 5912 5913 5913 5913 5913 5913 5912 5912 5911 5911 5910 5909 5908 5908 5907 5906 5905 5904 5903 5902 5901 5900 5899 5897 5896 5894 5893 5891 5889 5888 5886 5884 5882 5880